F5ZQC-13 Weather Reports


Display with metric or nautical units.
time (UTC)temp
F
wind
direction
speed
MPH
gust
MPH
rain 1hr
in
rain 24hr
in
rain mn
in
humidity
%
barometer
mb
20260503041310 61 236 2.0 4.0 0.00 0.00 0.00 58 1011.5
20260503041237 61 236 2.0 4.0 0.00 0.00 0.00 58 1011.5
20260503041035 61 247 4.0 4.0 0.00 0.00 0.00 57 1011.3
20260503040832 61 348 3.0 126.0 0.00 0.00 0.00 57 1010.7
20260503040630 61 315 2.0 126.0 0.00 0.00 0.00 55 1010.9
20260503040528 61 270 126.0 126.0 0.00 0.00 0.00 55 1010.9
20260503040428 61 315 1.0 2.0 0.00 0.00 0.00 59 1011.0
20260503040310 61 315 0.0 0.0 0.00 0.00 0.00 55 1011.2
20260503040226 61 315 0.0 0.0 0.00 0.00 0.00 55 1011.2
20260503040024 61 225 0.0 0.0 0.00 0.00 0.00 57 1011.0
20260503035620 61 225 0.0 2.0 0.00 0.00 0.00 58 1010.9
20260503035417 61 270 1.0 3.0 0.00 0.00 0.00 58 1011.3
20260503035217 61 303 3.0 4.0 0.00 0.00 0.00 55 1011.1
20260503035014 61 292 4.0 4.0 0.00 0.00 0.00 55 1011.2
20260503034811 61 315 2.0 2.0 0.00 0.00 0.00 57 1010.8
20260503034407 61 225 0.0 1.0 0.00 0.00 0.00 54 1011.0
20260503034205 61 225 1.0 2.0 0.00 0.00 0.00 57 1011.2
20260503034010 61 225 2.0 2.0 0.00 0.00 0.00 56 1011.1
20260503033856 61 225 1.0 2.0 0.00 0.00 0.00 55 1011.2
20260503033758 61 225 1.0 2.0 0.00 0.00 0.00 55 1011.2
20260503033152 62 303 1.0 124.0 0.00 0.00 0.00 55 1011.2
20260503033051 62 292 124.0 124.0 0.00 0.00 0.00 56 1011.2
20260503032935 61 326 0.0 1.0 0.00 0.00 0.00 54 1011.2
20260503032821 61 292 0.0 2.0 0.00 0.00 0.00 56 1011.0
20260503032732 61 292 0.0 2.0 0.00 0.00 0.00 56 1011.0
20260503032531 61 315 1.0 2.0 0.00 0.00 0.00 58 1011.0
20260503032126 61 315 1.0 2.0 0.00 0.00 0.00 57 1010.9
20260503031924 62 303 2.0 3.0 0.00 0.00 0.00 56 1011.0
20260503031722 61 315 1.0 3.0 0.00 0.00 0.00 57 1010.8
20260503031342 62 303 3.0 3.0 0.00 0.00 0.00 57 1011.1
20260503031138 62 326 0.0 1.0 0.00 0.00 0.00 57 1010.4
20260503030733 62 303 0.0 1.0 0.00 0.00 0.00 56 1010.9
20260503030621 61 292 1.0 1.0 0.00 0.00 0.00 57 1010.8
20260503030531 61 292 1.0 1.0 0.00 0.00 0.00 57 1010.8
20260503030331 61 292 0.0 124.0 0.00 0.00 0.00 54 1010.7
20260503030127 61 292 1.0 124.0 0.00 0.00 0.00 53 1010.9
20260503025834 61 0 0.0 1.0 0.00 0.00 0.00 56 1011.0
20260503025633 61 0 1.0 1.0 0.00 0.00 0.00 56 1010.9
20260503025431 61 0 0.0 1.0 0.00 0.00 0.00 58 1010.7
20260503025227 61 315 1.0 1.0 0.00 0.00 0.00 56 1010.9
20260503025026 61 292 0.0 1.0 0.00 0.00 0.00 57 1011.1
20260503024823 61 315 1.0 125.0 0.00 0.00 0.00 58 1010.9
20260503024630 61 326 2.0 125.0 0.00 0.00 0.00 56 1011.0
20260503024520 61 247 125.0 125.0 0.00 0.00 0.00 59 1011.1
20260503024438 61 292 2.0 2.0 0.00 0.00 0.00 58 1011.1
20260503024309 61 0 0.0 0.0 0.00 0.00 0.00 56 1011.2
20260503024229 61 0 0.0 0.0 0.00 0.00 0.00 56 1011.2
20260503023826 61 270 0.0 0.0 0.00 0.00 0.00 58 1011.3
20260503023624 61 225 0.0 0.0 0.00 0.00 0.00 56 1011.3
20260503023420 61 225 0.0 0.0 0.00 0.00 0.00 58 1011.3
20260503023218 61 225 0.0 0.0 0.00 0.00 0.00 58 1011.0
20260503023128 61 225 0.0 3.0 0.00 0.00 0.00 58 1011.4
20260503023016 61 225 0.0 3.0 0.00 0.00 0.00 58 1011.4
20260503022815 61 0 2.0 3.0 0.00 0.00 0.00 59 1011.2
20260503022409 61 247 0.0 125.0 0.00 0.00 0.00 57 1011.5
20260503022208 61 11 0.0 125.0 0.00 0.00 0.00 58 1011.2
20260503022037 61 303 125.0 125.0 0.00 0.00 0.00 58 1011.2
20260503022004 61 303 125.0 125.0 0.00 0.00 0.00 58 1011.2
20260503021652 61 281 3.0 3.0 0.00 0.00 0.00 58 1011.4
20260503021447 61 281 2.0 3.0 0.00 0.00 0.00 55 1011.4
20260503021247 61 326 2.0 2.0 0.00 0.00 0.00 57 1011.2
20260503020841 61 281 2.0 2.0 0.00 0.00 0.00 58 1011.5
20260503020640 61 225 0.0 0.0 0.00 0.00 0.00 57 1011.6
20260503020456 60 247 1.0 3.0 0.00 0.00 0.00 57 1011.6
20260503020331 60 292 2.0 5.0 0.00 0.00 0.00 57 1011.3
20260503020253 60 292 2.0 5.0 0.00 0.00 0.00 57 1011.3
20260503020130 61 303 2.0 5.0 0.00 0.00 0.00 54 1011.1
20260503020051 61 303 2.0 5.0 0.00 0.00 0.00 54 1011.1
20260503015647 61 292 3.0 4.0 0.00 0.00 0.00 57 1011.5
20260503015041 61 303 4.0 4.0 0.00 0.00 0.00 58 1011.3
20260503014838 61 303 3.0 6.0 0.00 0.00 0.00 56 1011.5
20260503014638 61 292 5.0 6.0 0.00 0.00 0.00 57 1011.3
20260503014440 61 303 6.0 6.0 0.00 0.00 0.00 57 1010.9
20260503014358 61 292 5.0 5.0 0.00 0.00 0.00 57 1011.2
20260503014156 61 326 2.0 2.0 0.00 0.00 0.00 55 1011.4
20260503013952 61 247 0.0 2.0 0.00 0.00 0.00 57 1011.2
20260503013751 61 292 2.0 6.0 0.00 0.00 0.00 56 1011.3
20260503013547 61 292 3.0 7.0 0.00 0.00 0.00 55 1011.4
20260503013347 62 281 6.0 7.0 0.00 0.00 0.00 56 1011.4
20260503013148 62 303 5.0 7.0 0.00 0.00 0.00 51 1011.5
20260503012948 62 292 4.0 4.0 0.00 0.00 0.00 57 1011.5
20260503012727 62 326 5.0 5.0 0.00 0.00 0.00 56 1011.5
20260503012558 62 292 4.0 4.0 0.00 0.00 0.00 61 1011.2
20260503012525 62 292 4.0 4.0 0.00 0.00 0.00 61 1011.2
20260503012322 62 315 0.0 1.0 0.00 0.00 0.00 54 1011.3
20260503012120 62 236 0.0 2.0 0.00 0.00 0.00 51 1011.3
20260503011918 62 236 0.0 3.0 0.00 0.00 0.00 55 1011.2
20260503011716 62 247 1.0 3.0 0.00 0.00 0.00 56 1010.9
20260503011521 62 247 1.0 1.0 0.00 0.00 0.00 55 1011.2
20260503011330 62 247 2.0 2.0 0.00 0.00 0.00 55 1011.1
20260503011128 62 247 1.0 3.0 0.00 0.00 0.00 54 1011.4
20260503010925 62 247 2.0 3.0 0.00 0.00 0.00 56 1011.5
20260503010721 62 45 0.0 1.0 0.00 0.00 0.00 55 1011.6
20260503010521 62 11 0.0 1.0 0.00 0.00 0.00 54 1011.5
20260503010317 62 292 0.0 124.0 0.00 0.00 0.00 57 1011.7
20260503010116 62 303 0.0 124.0 0.00 0.00 0.00 57 1011.8
20260503005756 62 292 0.0 1.0 0.00 0.00 0.00 54 1011.8
20260503005555 62 303 1.0 3.0 0.00 0.00 0.00 55 1011.8
20260503005353 62 337 1.0 3.0 0.00 0.00 0.00 55 1011.8
20260503004948 62 0 3.0 3.0 0.00 0.00 0.00 55 1012.0
20260503004619 62 292 1.0 126.0 0.00 0.00 0.00 52 1012.0
20260503004547 62 292 1.0 126.0 0.00 0.00 0.00 52 1012.0
20260503004407 62 292 1.0 1.0 0.00 0.00 0.00 57 1011.9
20260503004205 62 292 0.0 0.0 0.00 0.00 0.00 55 1012.0
20260503004004 62 247 0.0 2.0 0.00 0.00 0.00 55 1012.0
20260503003800 62 236 0.0 2.0 0.00 0.00 0.00 54 1012.2
20260503003559 62 247 1.0 124.0 0.00 0.00 0.00 56 1012.2
20260503003211 62 225 1.0 2.0 0.00 0.00 0.00 54 1012.2
20260503003008 62 225 2.0 2.0 0.00 0.00 0.00 54 1011.9
20260503002805 62 225 1.0 2.0 0.00 0.00 0.00 55 1012.3
20260503002603 62 247 1.0 125.0 0.00 0.00 0.00 55 1011.9
20260503002406 62 236 1.0 125.0 0.00 0.00 0.00 53 1012.2
20260503002258 62 225 125.0 125.0 0.00 0.00 0.00 54 1012.1
20260503002153 62 225 2.0 2.0 0.00 0.00 0.00 55 1012.4
20260503001949 62 292 0.0 1.0 0.00 0.00 0.00 55 1011.9
20260503001748 62 225 1.0 3.0 0.00 0.00 0.00 55 1012.2
20260503001544 62 236 1.0 3.0 0.00 0.00 0.00 55 1012.1
20260503001142 62 348 1.0 124.0 0.00 0.00 0.00 56 1012.3
20260503001038 62 270 124.0 124.0 0.00 0.00 0.00 57 1012.3
20260503000647 62 247 0.0 1.0 0.00 0.00 0.00 56 1012.4
20260503000444 62 292 0.0 1.0 0.00 0.00 0.00 55 1012.5
20260503000242 62 292 1.0 124.0 0.00 0.00 0.00 56 1012.7
20260502235936 62 292 124.0 124.0 0.00 0.00 0.00 55 1012.3
20260502235818 62 337 0.0 1.0 0.00 0.00 0.00 56 1012.3
20260502235724 62 337 0.0 1.0 0.00 0.00 0.00 56 1012.3
20260502235122 62 337 1.0 1.0 0.00 0.00 0.00 53 1012.6
20260502234916 62 247 1.0 2.0 0.00 0.00 0.00 54 1012.3
20260502234714 62 247 2.0 2.0 0.00 0.00 0.00 55 1012.8
20260502234325 62 225 2.0 2.0 0.00 0.00 0.00 55 1012.6
20260502234002 62 236 1.0 2.0 0.00 0.00 0.00 54 1012.7
20260502233921 62 236 1.0 2.0 0.00 0.00 0.00 54 1012.7
20260502233518 62 236 2.0 2.0 0.00 0.00 0.00 55 1012.7
20260502233223 62 225 0.0 0.0 0.00 0.00 0.00 55 1012.8
20260502232616 62 225 1.0 124.0 0.00 0.00 0.00 55 1012.9
20260502232513 62 247 124.0 124.0 0.00 0.00 0.00 54 1012.9
20260502232209 62 270 1.0 2.0 0.00 0.00 0.00 55 1012.8
20260502231803 62 315 2.0 126.0 0.00 0.00 0.00 55 1012.9
20260502231601 62 326 2.0 126.0 0.00 0.00 0.00 55 1013.1
20260502231537 62 225 126.0 126.0 0.00 0.00 0.00 54 1012.9
20260502231459 62 225 126.0 126.0 0.00 0.00 0.00 54 1012.9
20260502231441 62 303 1.0 124.0 0.00 0.00 0.00 56 1012.9
20260502231339 62 236 124.0 124.0 0.00 0.00 0.00 56 1012.8
20260502231314 62 236 0.0 1.0 0.00 0.00 0.00 55 1013.0
20260502231110 62 247 0.0 0.0 0.00 0.00 0.00 53 1012.9
20260502230908 62 247 0.0 0.0 0.00 0.00 0.00 55 1012.8
20260502230706 62 270 0.0 1.0 0.00 0.00 0.00 54 1013.0
20260502230541 62 270 0.0 3.0 0.00 0.00 0.00 55 1013.1
20260502230503 62 270 0.0 3.0 0.00 0.00 0.00 55 1013.1
20260502230301 62 303 0.0 3.0 0.00 0.00 0.00 55 1013.0
20260502230100 62 225 1.0 3.0 0.00 0.00 0.00 53 1013.0
20260502225857 62 270 1.0 3.0 0.00 0.00 0.00 54 1013.0
20260502225654 62 281 1.0 3.0 0.00 0.00 0.00 55 1013.0
20260502225452 62 326 1.0 2.0 0.00 0.00 0.00 55 1013.0
20260502225249 62 225 2.0 3.0 0.00 0.00 0.00 58 1013.0
20260502225050 62 270 1.0 3.0 0.00 0.00 0.00 55 1012.9
20260502224714 62 225 2.0 125.0 0.00 0.00 0.00 54 1012.9
20260502224643 62 225 2.0 125.0 0.00 0.00 0.00 54 1012.9
20260502224541 62 292 125.0 125.0 0.00 0.00 0.00 55 1013.0
20260502224453 62 315 0.0 2.0 0.00 0.00 0.00 56 1012.9
20260502224243 62 225 1.0 2.0 0.00 0.00 0.00 55 1013.0
20260502224041 62 292 0.0 1.0 0.00 0.00 0.00 54 1013.0
20260502223839 62 270 0.0 124.0 0.00 0.00 0.00 55 1013.0
20260502223637 62 281 1.0 124.0 0.00 0.00 0.00 54 1013.0
20260502223607 62 292 124.0 124.0 0.00 0.00 0.00 55 1013.0
20260502223533 62 292 124.0 124.0 0.00 0.00 0.00 55 1013.0
20260502223246 62 281 2.0 3.0 0.00 0.00 0.00 55 1013.1
20260502223044 62 292 3.0 3.0 0.00 0.00 0.00 54 1013.1
20260502222842 62 303 2.0 4.0 0.00 0.00 0.00 55 1013.0
20260502222712 62 292 3.0 4.0 0.00 0.00 0.00 54 1012.9
20260502222640 62 292 3.0 4.0 0.00 0.00 0.00 54 1012.9
20260502222343 62 315 2.0 2.0 0.00 0.00 0.00 55 1013.0
20260502222141 62 315 1.0 1.0 0.00 0.00 0.00 54 1012.9
20260502221736 62 236 2.0 124.0 0.00 0.00 0.00 55 1013.1
20260502221534 62 292 2.0 124.0 0.00 0.00 0.00 53 1013.2
20260502221432 62 303 124.0 124.0 0.00 0.00 0.00 53 1013.1
20260502221156 62 270 1.0 4.0 0.00 0.00 0.00 54 1013.2
20260502220751 62 270 2.0 4.0 0.00 0.00 0.00 53 1013.1
20260502220347 62 292 1.0 2.0 0.00 0.00 0.00 53 1013.2
20260502220144 62 270 1.0 2.0 0.00 0.00 0.00 54 1013.2
20260502215951 62 292 2.0 3.0 0.00 0.00 0.00 53 1013.1
20260502215741 62 270 1.0 3.0 0.00 0.00 0.00 53 1013.0
20260502215536 62 270 1.0 3.0 0.00 0.00 0.00 53 1013.1
20260502215336 62 270 0.0 3.0 0.00 0.00 0.00 53 1013.2
20260502215117 62 315 1.0 125.0 0.00 0.00 0.00 53 1013.1
20260502215014 62 270 125.0 125.0 0.00 0.00 0.00 52 1012.8
20260502214934 62 326 2.0 3.0 0.00 0.00 0.00 52 1013.0
20260502214330 62 270 2.0 3.0 0.00 0.00 0.00 53 1013.1
20260502214125 63 292 2.0 4.0 0.00 0.00 0.00 54 1013.2
20260502213721 63 292 3.0 125.0 0.00 0.00 0.00 53 1013.1
20260502213519 63 270 2.0 125.0 0.00 0.00 0.00 52 1013.1
20260502213417 63 270 125.0 125.0 0.00 0.00 0.00 51 1013.2
20260502213226 63 292 1.0 3.0 0.00 0.00 0.00 52 1013.0
20260502213023 63 270 3.0 3.0 0.00 0.00 0.00 51 1013.3
20260502212821 63 270 2.0 3.0 0.00 0.00 0.00 52 1013.3
20260502212619 63 315 2.0 3.0 0.00 0.00 0.00 52 1013.2
20260502212214 63 292 1.0 129.0 0.00 0.00 0.00 51 1013.2
20260502211940 63 270 2.0 3.0 0.00 0.00 0.00 51 1013.2
20260502211732 63 270 3.0 5.0 0.00 0.00 0.00 51 1013.4
20260502211531 63 270 4.0 5.0 0.00 0.00 0.00 51 1013.3
20260502211329 63 270 3.0 127.0 0.00 0.00 0.00 50 1013.4
20260502211127 63 270 4.0 127.0 0.00 0.00 0.00 50 1013.4
20260502211023 63 315 127.0 127.0 0.00 0.00 0.00 50 1013.3
20260502210907 63 270 3.0 5.0 0.00 0.00 0.00 50 1013.3
20260502210705 63 270 4.0 5.0 0.00 0.00 0.00 50 1013.3
20260502210301 63 270 2.0 3.0 0.00 0.00 0.00 49 1013.5
20260502210058 63 270 2.0 2.0 0.00 0.00 0.00 49 1013.5
20260502210004 63 315 1.0 4.0 0.00 0.00 0.00 49 1013.2
20260502205759 63 0 3.0 4.0 0.00 0.00 0.00 49 1013.4
20260502205559 63 270 2.0 4.0 0.00 0.00 0.00 49 1013.2
20260502205356 63 315 0.0 5.0 0.00 0.00 0.00 48 1013.4
20260502204655 64 270 4.0 7.0 0.00 0.00 0.00 48 1013.3
20260502204539 64 270 4.0 7.0 0.00 0.00 0.00 48 1013.3
20260502204338 64 315 4.0 5.0 0.00 0.00 0.00 48 1013.4
20260502204137 64 303 2.0 2.0 0.00 0.00 0.00 47 1013.6
20260502204006 64 326 1.0 4.0 0.00 0.00 0.00 48 1013.5
20260502203933 64 315 0.0 0.0 0.00 0.00 0.00 47 1013.5
20260502203833 64 326 1.0 4.0 0.00 0.00 0.00 48 1013.5
20260502203634 64 303 0.0 4.0 0.00 0.00 0.00 47 1013.4
20260502203227 64 315 1.0 3.0 0.00 0.00 0.00 47 1013.4
20260502202822 64 270 5.0 6.0 0.00 0.00 0.00 47 1013.3
20260502202620 64 270 4.0 5.0 0.00 0.00 0.00 46 1013.4
20260502202215 64 337 0.0 1.0 0.00 0.00 0.00 46 1013.1
20260502201857 64 348 0.0 1.0 0.00 0.00 0.00 46 1013.1
20260502201655 64 315 0.0 1.0 0.00 0.00 0.00 46 1013.1
20260502201453 64 315 0.0 1.0 0.00 0.00 0.00 46 1013.1
20260502201251 64 292 0.0 0.0 0.00 0.00 0.00 45 1013.1
20260502201049 64 303 0.0 2.0 0.00 0.00 0.00 44 1013.1
20260502200846 65 303 0.0 2.0 0.00 0.00 0.00 45 1013.2
20260502200644 65 303 2.0 3.0 0.00 0.00 0.00 44 1013.1
20260502200442 65 303 2.0 127.0 0.00 0.00 0.00 45 1013.1
20260502200240 65 315 3.0 127.0 0.00 0.00 0.00 44 1013.2
20260502200042 65 315 1.0 7.0 0.00 0.00 0.00 44 1013.2
20260502195839 65 315 0.0 7.0 0.00 0.00 0.00 44 1013.4
20260502195738 65 225 3.0 6.0 0.00 0.00 0.00 44 1013.5
20260502195644 65 225 3.0 6.0 0.00 0.00 0.00 44 1013.5
20260502195441 65 270 1.0 8.0 0.00 0.00 0.00 44 1013.4
20260502194835 65 292 3.0 9.0 0.00 0.00 0.00 43 1013.4
20260502194626 65 292 7.0 9.0 0.00 0.00 0.00 43 1013.3
20260502194222 66 292 8.0 8.0 0.00 0.00 0.00 42 1013.2
20260502194019 66 270 3.0 9.0 0.00 0.00 0.00 42 1013.3
20260502192805 66 292 8.0 8.0 0.00 0.00 0.00 40 1013.0
20260502192643 66 281 0.0 8.0 0.00 0.00 0.00 39 1013.1
20260502192441 66 315 5.0 8.0 0.00 0.00 0.00 40 1012.9
20260502192036 67 270 4.0 7.0 0.00 0.00 0.00 38 1012.8
20260502191834 67 315 3.0 6.0 0.00 0.00 0.00 37 1012.8
20260502191737 67 270 3.0 5.0 0.00 0.00 0.00 37 1012.8
20260502191632 67 270 3.0 5.0 0.00 0.00 0.00 37 1012.8
20260502191430 67 292 3.0 4.0 0.00 0.00 0.00 36 1012.7
20260502191228 67 270 1.0 6.0 0.00 0.00 0.00 36 1012.8
20260502191025 67 270 3.0 7.0 0.00 0.00 0.00 35 1012.8
20260502190621 67 270 2.0 6.0 0.00 0.00 0.00 34 1012.8
20260502190419 67 270 5.0 6.0 0.00 0.00 0.00 33 1012.8
20260502190013 67 292 4.0 5.0 0.00 0.00 0.00 32 1012.7
20260502185811 67 270 4.0 6.0 0.00 0.00 0.00 32 1012.7
20260502185609 67 315 4.0 9.0 0.00 0.00 0.00 31 1012.8
20260502185205 67 270 5.0 11.0 0.00 0.00 0.00 32 1012.7
20260502184800 67 225 7.0 17.0 0.00 0.00 0.00 32 1012.5
20260502184356 67 225 8.0 12.0 0.00 0.00 0.00 32 1012.5
20260502184154 67 236 5.0 12.0 0.00 0.00 0.00 32 1012.5
20260502183749 67 225 8.0 15.0 0.00 0.00 0.00 32 1012.5
20260502183547 67 225 6.0 16.0 0.00 0.00 0.00 32 1012.4
20260502183345 67 236 11.0 16.0 0.00 0.00 0.00 32 1012.3
20260502183142 67 225 16.0 16.0 0.00 0.00 0.00 32 1012.4
20260502182939 67 225 9.0 14.0 0.00 0.00 0.00 32 1012.4
20260502182334 68 225 10.0 16.0 0.00 0.00 0.00 32 1012.3
20260502182131 68 236 12.0 16.0 0.00 0.00 0.00 32 1012.4
20260502181928 68 247 10.0 22.0 0.00 0.00 0.00 32 1012.3
20260502181837 68 236 12.0 22.0 0.00 0.00 0.00 31 1012.3
20260502181727 68 236 12.0 22.0 0.00 0.00 0.00 31 1012.3
20260502181614 68 225 22.0 22.0 0.00 0.00 0.00 31 1012.2
20260502181210 68 225 14.0 35.0 0.00 0.00 0.00 31 1012.4
20260502181007 68 225 17.0 35.0 0.00 0.00 0.00 31 1012.4
20260502180803 68 225 14.0 36.0 0.00 0.00 0.00 31 1012.4
20260502180601 69 225 20.0 36.0 0.00 0.00 0.00 31 1012.3
20260502180305 69 225 14.0 34.0 0.00 0.00 0.00 32 1012.2
20260502170419 70 225 3.0 4.0 0.00 0.00 0.00 41 1012.3
20260502170216 70 225 1.0 6.0 0.00 0.00 0.00 41 1012.4
20260502164154 70 247 5.0 7.0 0.00 0.00 0.00 41 1012.6
20260502163952 70 247 2.0 7.0 0.00 0.00 0.00 41 1012.7
20260502163749 70 225 5.0 7.0 0.00 0.00 0.00 41 1012.8
20260502163547 70 315 2.0 5.0 0.00 0.00 0.00 40 1012.7
20260502162945 70 315 7.0 10.0 0.00 0.00 0.00 40 1012.5
20260502162536 70 337 5.0 7.0 0.00 0.00 0.00 39 1012.5
20260502162131 70 225 5.0 9.0 0.00 0.00 0.00 38 1012.6
20260502161929 70 236 4.0 9.0 0.00 0.00 0.00 40 1012.7
20260502161727 70 326 7.0 7.0 0.00 0.00 0.00 39 1012.8
20260502161525 71 225 5.0 6.0 0.00 0.00 0.00 39 1012.9
20260502161322 71 258 4.0 8.0 0.00 0.00 0.00 40 1012.8
20260502160917 71 292 4.0 7.0 0.00 0.00 0.00 39 1012.9
20260502160716 71 292 4.0 5.0 0.00 0.00 0.00 39 1012.9
20260502160108 71 315 0.0 6.0 0.00 0.00 0.00 39 1013.1
20260502152226 74 315 8.0 8.0 0.00 0.00 0.00 36 1013.2
20260502151821 74 315 3.0 5.0 0.00 0.00 0.00 36 1013.2
20260502151619 74 315 3.0 5.0 0.00 0.00 0.00 36 1013.2
20260502151417 74 315 4.0 5.0 0.00 0.00 0.00 36 1013.3
20260502151214 74 270 4.0 6.0 0.00 0.00 0.00 36 1013.3
20260502151012 75 292 4.0 10.0 0.00 0.00 0.00 36 1013.3
20260502150608 75 292 7.0 16.0 0.00 0.00 0.00 36 1013.3
20260502130544 75 315 4.0 7.0 0.00 0.00 0.00 35 1014.5
20260502130340 75 292 6.0 11.0 0.00 0.00 0.00 34 1014.6
20260502130138 75 292 7.0 11.0 0.00 0.00 0.00 34 1014.5
20260502123703 76 315 6.0 11.0 0.00 0.00 0.00 34 1014.6
20260502123501 77 315 6.0 11.0 0.00 0.00 0.00 34 1014.6
20260502123303 77 315 9.0 10.0 0.00 0.00 0.00 35 1014.8
20260502123057 77 315 9.0 10.0 0.00 0.00 0.00 35 1014.5
20260502122854 77 303 6.0 10.0 0.00 0.00 0.00 35 1014.8
20260502122652 77 315 7.0 10.0 0.00 0.00 0.00 35 1014.7
20260502122450 77 315 5.0 10.0 0.00 0.00 0.00 35 1014.8
20260502122248 77 225 6.0 10.0 0.00 0.00 0.00 35 1014.8
20260502121843 77 258 7.0 10.0 0.00 0.00 0.00 34 1014.9
20260502121641 77 292 6.0 10.0 0.00 0.00 0.00 35 1014.8
20260502121438 77 225 6.0 8.0 0.00 0.00 0.00 35 1014.8
20260502121237 77 303 6.0 7.0 0.00 0.00 0.00 36 1014.7
20260502120838 76 225 7.0 9.0 0.00 0.00 0.00
20260502120831 76 225 7.0 9.0 0.00 0.00 0.00 36 1014.8
20260502120427 76 292 9.0 9.0 0.00 0.00 0.00 37 1014.9
20260502120225 76 315 7.0 10.0 0.00 0.00 0.00 37 1014.9
20260502115820 76 0 7.0 11.0 0.00 0.00 0.00 37 1014.9
20260502115618 76 315 10.0 11.0 0.00 0.00 0.00 37 1014.9
20260502115416 76 315 9.0 12.0 0.00 0.00 0.00 37 1014.9
20260502114606 75 337 4.0 9.0 0.00 0.00 0.00 38 1015.2
20260502114404 75 292 5.0 12.0 0.00 0.00 0.00 38 1015.1
20260502114202 75 292 10.0 12.0 0.00 0.00 0.00 38 1015.1
20260502113151 75 315 7.0 14.0 0.00 0.00 0.00 38 1015.0
20260502112949 75 292 10.0 14.0 0.00 0.00 0.00 38 1015.2
20260502112746 75 315 13.0 14.0 0.00 0.00 0.00 39 1015.2
20260502112544 74 303 12.0 12.0 0.00 0.00 0.00 39 1015.3
20260502112140 74 326 7.0 12.0 0.00 0.00 0.00 39 1015.4
20260502111937 74 236 7.0 12.0 0.00 0.00 0.00 38 1015.3
20260502111734 74 292 8.0 11.0 0.00 0.00 0.00 39 1015.3
20260502111532 74 292 8.0 11.0 0.00 0.00 0.00 39 1015.4
20260502111331 74 326 6.0 12.0 0.00 0.00 0.00 39 1015.4
20260502111129 74 315 8.0 12.0 0.00 0.00 0.00 39 1015.4
20260502110926 74 315 7.0 8.0 0.00 0.00 0.00 39 1015.4
20260502110723 73 315 8.0 11.0 0.00 0.00 0.00 38 1015.4
20260502110521 73 0 6.0 11.0 0.00 0.00 0.00 38 1015.3
20260502110319 73 348 11.0 11.0 0.00 0.00 0.00 39 1015.4
20260502110117 73 348 6.0 11.0 0.00 0.00 0.00 39 1015.5
20260502105915 73 236 8.0 11.0 0.00 0.00 0.00 39 1015.5
20260502105517 73 315 7.0 12.0 0.00 0.00 0.00 39 1015.5
20260502105309 73 303 8.0 12.0 0.00 0.00 0.00 39 1015.5
20260502105106 73 315 9.0 13.0 0.00 0.00 0.00 39 1015.6
20260502104702 73 315 12.0 12.0 0.00 0.00 0.00 40 1015.7
20260502104518 73 0 3.0 10.0 0.00 0.00 0.00 40 1015.7
20260502104316 72 0 7.0 7.0 0.00 0.00 0.00 40 1015.8
20260502104115 72 0 6.0 7.0 0.00 0.00 0.00 39 1015.9
20260502103912 72 315 7.0 10.0 0.00 0.00 0.00 40 1015.8
20260502103709 72 315 6.0 10.0 0.00 0.00 0.00 39 1015.9
20260502103507 72 315 9.0 9.0 0.00 0.00 0.00 38 1015.8
20260502103305 72 0 6.0 9.0 0.00 0.00 0.00 38 1015.8
20260502102901 72 0 2.0 9.0 0.00 0.00 0.00 39 1015.9
20260502102658 72 315 7.0 9.0 0.00 0.00 0.00 38 1015.8
20260502102254 72 315 7.0 8.0 0.00 0.00 0.00 38 1015.9
20260502102052 72 0 8.0 8.0 0.00 0.00 0.00 37 1015.9
20260502101849 72 0 4.0 10.0 0.00 0.00 0.00 37 1015.9
20260502101646 72 0 4.0 10.0 0.00 0.00 0.00 37 1015.9
20260502101444 72 0 9.0 10.0 0.00 0.00 0.00 37 1015.9
20260502101242 72 315 4.0 10.0 0.00 0.00 0.00 37 1015.9
20260502100231 73 315 6.0 7.0 0.00 0.00 0.00 37 1015.8
20260502091337 74 315 5.0 7.0 0.00 0.00 0.00 34 1015.9
20260502090932 74 315 5.0 5.0 0.00 0.00 0.00 35 1016.0
20260502090730 74 315 4.0 8.0 0.00 0.00 0.00 35 1016.0
20260502090527 73 315 5.0 8.0 0.00 0.00 0.00 35 1016.0
20260502090325 73 326 8.0 8.0 0.00 0.00 0.00 35 1015.9
20260502090123 73 0 6.0 7.0 0.00 0.00 0.00 35 1016.0
20260502071525 73 292 4.0 4.0 0.00 0.00 0.00 40 1015.7
20260502071322 72 315 3.0 4.0 0.00 0.00 0.00 41 1015.5
20260502071120 72 236 1.0 3.0 0.00 0.00 0.00 41 1015.8
20260502070918 71 315 2.0 127.0 0.00 0.00 0.00 40 1015.7
20260502070716 71 337 3.0 127.0 0.00 0.00 0.00 41 1015.8
20260502070614 71 292 127.0 127.0 0.00 0.00 0.00 41 1015.7
20260502070208 70 315 2.0 126.0 0.00 0.00 0.00 43 1015.7
20260502070006 69 270 1.0 126.0 0.00 0.00 0.00 44 1015.6
20260502065903 69 303 126.0 126.0 0.00 0.00 0.00 45 1015.6
20260502065136 67 292 126.0 126.0 0.00 0.00 0.00 46 1015.6
20260502065020 67 303 1.0 3.0 0.00 0.00 0.00 45 1015.6
20260502064818 66 315 2.0 125.0 0.00 0.00 0.00 45 1015.5
20260502064449 65 303 1.0 3.0 0.00 0.00 0.00 45 1015.6
20260502064247 65 236 2.0 3.0 0.00 0.00 0.00 45 1015.7
20260502064045 64 292 2.0 125.0 0.00 0.00 0.00 46 1015.6
20260502063741 64 225 125.0 125.0 0.00 0.00 0.00 51 1015.6
20260502063542 63 315 0.0 3.0 0.00 0.00 0.00 45 1015.6
20260502062339 61 247 2.0 4.0 0.00 0.00 0.00 46 1015.8
20260502062137 60 315 2.0 4.0 0.00 0.00 0.00 46 1015.6
20260502061935 60 45 3.0 3.0 0.00 0.00 0.00 46 1015.7
20260502061732 60 225 1.0 6.0 0.00 0.00 0.00 46 1015.7
20260502061530 60 247 3.0 6.0 0.00 0.00 0.00 46 1015.7
20260502061024 59 292 129.0 129.0 0.00 0.00 0.00 46 1015.8
20260502060937 59 292 2.0 3.0 0.00 0.00 0.00 46 1015.6
20260502060734 59 247 3.0 3.0 0.00 0.00 0.00 46 1015.7
20260502060532 59 247 2.0 5.0 0.00 0.00 0.00 46 1015.6
20260502060128 59 45 3.0 126.0 0.00 0.00 0.00 47 1015.7
20260502060025 59 236 126.0 126.0 0.00 0.00 0.00 47 1015.7
20260502055923 59 225 1.0 4.0 0.00 0.00 0.00 47 1015.7
20260502055721 59 292 1.0 4.0 0.00 0.00 0.00 47 1015.7
20260502055519 59 337 3.0 4.0 0.00 0.00 0.00 47 1015.8
20260502055317 59 315 4.0 4.0 0.00 0.00 0.00 46 1015.6
20260502055114 58 292 3.0 3.0 0.00 0.00 0.00 47 1015.6
20260502054917 58 247 2.0 3.0 0.00 0.00 0.00 48 1015.7
20260502054710 58 247 1.0 126.0 0.00 0.00 0.00 48 1015.6
20260502054550 58 247 3.0 126.0 0.00 0.00 0.00 50 1015.6
20260502054516 58 247 3.0 126.0 0.00 0.00 0.00 50 1015.6
20260502054406 58 247 126.0 126.0 0.00 0.00 0.00 49 1015.6
20260502054348 58 247 3.0 5.0 0.00 0.00 0.00 48 1015.4
20260502054145 58 281 1.0 6.0 0.00 0.00 0.00 49 1015.5
20260502053539 58 247 1.0 7.0 0.00 0.00 0.00 48 1015.6
20260502053341 58 337 2.0 7.0 0.00 0.00 0.00 48 1015.6
20260502053133 58 236 4.0 7.0 0.00 0.00 0.00 49 1015.7
20260502052931 58 236 5.0 5.0 0.00 0.00 0.00 48 1015.3
20260502052729 58 315 3.0 3.0 0.00 0.00 0.00 48 1015.6
20260502052527 58 348 2.0 3.0 0.00 0.00 0.00 50 1015.6
20260502051920 57 45 1.0 4.0 0.00 0.00 0.00 50 1015.6
20260502051718 57 45 2.0 125.0 0.00 0.00 0.00 50 1015.7
20260502051414 57 292 125.0 125.0 0.00 0.00 0.00 49 1015.6
20260502051202 57 45 4.0 7.0 0.00 0.00 0.00 49 1015.5
20260502050959 57 236 5.0 7.0 0.00 0.00 0.00 50 1015.6
20260502050801 57 247 7.0 7.0 0.00 0.00 0.00 50 1015.7
20260502050555 57 45 5.0 5.0 0.00 0.00 0.00 51 1015.6
20260502050353 57 45 3.0 3.0 0.00 0.00 0.00 51 1015.6
20260502050150 57 247 3.0 3.0 0.00 0.00 0.00 51 1015.5
20260502045948 57 11 1.0 5.0 0.00 0.00 0.00 51 1015.5
20260502045746 57 45 3.0 5.0 0.00 0.00 0.00 51 1015.6
20260502045543 57 45 5.0 7.0 0.00 0.00 0.00 50 1015.4
20260502045510 57 45 4.0 126.0 0.00 0.00 0.00 51 1015.6
20260502045342 57 45 4.0 126.0 0.00 0.00 0.00 51 1015.6
20260502045110 57 225 126.0 126.0 0.00 0.00 0.00 52 1015.3
20260502045037 57 225 126.0 126.0 0.00 0.00 0.00 52 1015.3
20260502044843 57 45 4.0 5.0 0.00 0.00 0.00 52 1015.6
20260502044713 57 45 2.0 3.0 0.00 0.00 0.00 52 1015.4
20260502044637 57 45 2.0 3.0 0.00 0.00 0.00 52 1015.4
20260502044435 57 270 1.0 2.0 0.00 0.00 0.00 52 1015.6
20260502044030 57 337 1.0 1.0 0.00 0.00 0.00 53 1015.3
20260502043626 57 292 0.0 3.0 0.00 0.00 0.00 52 1015.5
20260502043220 57 281 3.0 3.0 0.00 0.00 0.00 52 1015.4
20260502043018 57 292 2.0 3.0 0.00 0.00 0.00 53 1015.4
20260502042615 57 292 3.0 3.0 0.00 0.00 0.00 52 1015.2
20260502042320 57 292 1.0 2.0 0.00 0.00 0.00 53 1015.3
20260502042117 57 315 1.0 2.0 0.00 0.00 0.00 53 1015.2
20260502041915 57 315 2.0 3.0 0.00 0.00 0.00 53 1015.3